[[{"header":{"parameterUnit":"m.s-1","parameterCategory":1,"la1":30.2991,"la2":30.254,"lo1":-89.0895,"lo2":-89.0444,"dy":0.0017,"dx":0.0017,"nx":28,"ny":28,"refTime":"2024-03-30T03:00:00:Z","depth":0,"parameterNumber":2,"parameterNumberName":"U-component_of_WINDS"},"data":[0,0,0,0,0,0,0,0,0,0,0,0,0,0,0,0,0,0,0,0,0,0,0,0,0,0,0,0,0,0,0,0,0,0,0,0,0,0,0,0,0,0,0,0,0,0,0,0,0,0,0,0,0,0,0,0,0,0,0.1817,0.1817,0,0.1792,0.1792,0.1791,0.1764,0.1764,0.1763,0.1763,0.1737,0.1736,0.1736,0,0,0,0,0,0,0,0,0,0,0,0,0,0.1841,0.1841,0.1817,0.1817,0.1816,0.1792,0.1792,0.1791,0.1764,0.1764,0.1763,0.1763,0.1737,0.1737,0.1736,0,0,0,0,0,0,0,0,0,0,0,0,0,0.1825,0.1841,0.1817,0.18,0.1798,0.1792,0.1792,0.1791,0.1764,0.1764,0.1763,0.1763,0.1737,0.1737,0.1736,0.1745,0,0,0.1735,0.1734,0,0,0,0,0,0,0,0,0.1826,0.1824,0.1803,0.1801,0.1799,0.1781,0.179,0.1776,0.1764,0.1777,0.1763,0.1762,0.1752,0.175,0.1747,0.1743,0.1742,0.1734,0.1734,0.1734,0.1734,0,0,0,0,0,0,0,0.1827,0.1825,0.1807,0.1803,0.18,0.1793,0.179,0.1788,0.1768,0.1776,0.1774,0.1771,0.1751,0.1747,0.1746,0.1742,0.1734,0.1734,0.1734,0.1734,0.1744,0.1745,0,0,0,0,0,0,0.1831,0.1826,0.1808,0.1806,0.1811,0.1793,0.179,0.1787,0.1768,0.1765,0.1772,0.177,0.1748,0.1746,0.1745,0.1754,0.1734,0.1733,0.1733,0.1744,0.1745,0.1745,0,0,0,0,0,0,0.1831,0.1829,0.1809,0.1816,0.1812,0.1794,0.179,0.1787,0.1783,0.1765,0.1761,0.1772,0.1748,0.1745,0.1745,0.1752,0.1733,0.1733,0.1743,0.1744,0.1745,0.1771,0,0,0,0,0,0,0.1832,0.183,0.1833,0.1816,0.1812,0.181,0.1791,0.1787,0.1783,0.178,0.1764,0.1761,0.1747,0.1746,0.1744,0.1751,0.1732,0.1742,0.1744,0.1745,0.177,0.1773,0.1776,0,0,0,0,0,0.1833,0.1841,0.1833,0.1831,0.1816,0.181,0.1808,0.1792,0.1783,0.1786,0.1774,0.1761,0.1752,0.1746,0.1744,0.1751,0.1742,0.1743,0.1745,0.1768,0.1772,0.1776,0,0,0,0,0,0,0.1859,0.1839,0.183,0.1832,0.1823,0.1806,0.1809,0.1797,0.179,0.1788,0.1769,0.1765,0.1767,0.1759,0.1753,0.1758,0.1745,0.1746,0.1764,0.1767,0.177,0.1772,0.1732,0,0,0,0,0,0.1865,0.1863,0.1845,0.1849,0.1845,0.1828,0.1825,0.1813,0.1803,0.1799,0.1787,0.1778,0.1772,0.1769,0.1764,0.1768,0.1764,0.1772,0.1775,0.1778,0.1779,0.1781,0.1784,0.175,0.175,0.175,0,0,0.1878,0.1866,0.1866,0.1854,0.1845,0.1843,0.1825,0.1823,0.1821,0.1799,0.1797,0.1788,0.1776,0.1779,0.1779,0.1772,0.1788,0.178,0.1782,0.1781,0.1783,0.1786,0.1789,0.1751,0.175,0.175,0,0,0.1899,0.189,0.1893,0.1885,0.1873,0.1861,0.1862,0.1846,0.1839,0.1838,0.1821,0.1819,0.181,0.1802,0.1797,0.1816,0.1804,0.1815,0.1831,0.1833,0.1836,0.1838,0.1845,0.1848,0.1816,0.1816,0.1816,0,0.1916,0.1912,0.1896,0.1895,0.189,0.187,0.1873,0.1866,0.1852,0.185,0.1842,0.1831,0.1821,0.1822,0.1826,0.1823,0.1823,0.1817,0.1837,0.1839,0.1841,0.1847,0.185,0.1818,0.1818,0.1817,0.1817,0,0.1933,0.1931,0.1934,0.1922,0.1918,0.1919,0.1902,0.19,0.1889,0.1879,0.1878,0.1866,0.1857,0.1856,0.1846,0.1855,0.1851,0.184,0.1827,0.1846,0.1852,0.1854,0.182,0.1819,0.1819,0.1818,0,0,0.197,0.1949,0.1951,0.1945,0.193,0.1928,0.1928,0.192,0.1918,0.191,0.1909,0.1903,0.1893,0.1887,0.1875,0.1877,0.1893,0.1866,0.1866,0.1872,0.1903,0.1911,0.1914,0.1885,0.1886,0.1886,0.1904,0,0.1989,0.1988,0.1973,0.1976,0.1974,0.1955,0.1955,0.1946,0.1937,0.1933,0.1922,0.1918,0.1905,0.1902,0.1903,0.1891,0.1899,0.189,0.1884,0.1884,0.1888,0.1917,0.1926,0.1943,0.1906,0.1907,0.1907,0,0.201,0.2004,0.2007,0.1992,0.199,0.1991,0.1982,0.1979,0.1969,0.1961,0.1955,0.1942,0.1941,0.1928,0.1927,0.1921,0.1918,0.1912,0.1912,0.1911,0.1897,0.1917,0.1949,0.1951,0.191,0.191,0.191,0,0.2037,0.2028,0.2029,0.2025,0.2008,0.2008,0.2001,0.199,0.1987,0.1979,0.1977,0.1969,0.1965,0.196,0.1945,0.1937,0.1945,0.1931,0.1939,0.194,0.1941,0.1941,0.1973,0.194,0.194,0.194,0.194,0,0.2059,0.2062,0.2041,0.2041,0.2043,0.2027,0.203,0.2021,0.2011,0.2009,0.1993,0.1992,0.1973,0.1969,0.1958,0.1958,0.1957,0.1951,0.1948,0.1952,0.1953,0.195,0.1948,0.194,0.194,0.194,0.194,0,0.2089,0.2075,0.2074,0.2059,0.2055,0.2057,0.2044,0.2043,0.2033,0.2031,0.203,0.2013,0.2008,0.1993,0.1985,0.1977,0.1981,0.1975,0.1985,0.1983,0.1991,0.1991,0.2022,0.2025,0.199,0.1991,0.1991,0,0.2104,0.2105,0.209,0.2088,0.2082,0.2078,0.2075,0.2058,0.2055,0.2044,0.2045,0.2039,0.2033,0.2026,0.2013,0.2007,0.2001,0.2012,0.1999,0.2004,0.2001,0.2001,0.2001,0.2015,0.2015,0.2016,0.2016,0,0.2132,0.2125,0.212,0.2113,0.211,0.2103,0.2096,0.2095,0.2077,0.2074,0.2069,0.2065,0.2057,0.2051,0.2042,0.2035,0.2022,0.202,0.2022,0.2026,0.2031,0.2029,0.1992,0.2019,0.2019,0.2019,0.2019,0.2018,0.2154,0.2155,0.2144,0.214,0.2133,0.2127,0.2126,0.2115,0.2111,0.2103,0.2094,0.209,0.208,0.2067,0.2061,0.2057,0.2051,0.2053,0.2053,0.2054,0.2056,0.2032,0.2056,0.2056,0.2056,0.2056,0.2055,0,0.2181,0.2174,0.217,0.216,0.2157,0.2146,0.2138,0.2136,0.2133,0.2124,0.2119,0.2114,0.2108,0.2095,0.2089,0.2088,0.2083,0.2087,0.2087,0.2085,0.2063,0.2062,0.2092,0.2092,0.2092,0.2092,0.2092,0.2092,0.2195,0.2195,0.2188,0.2185,0.2177,0.2174,0.217,0.2164,0.2157,0.2152,0.2148,0.2139,0.2129,0.2122,0.2116,0.2112,0.2111,0.2117,0.2112,0.209,0.2087,0.2084,0.2083,0.2117,0.2117,0.2134,0.2135,0.2135]},{"header":{"parameterUnit":"m.s-1","parameterCategory":1,"la1":30.2991,"la2":30.254,"lo1":-89.0895,"lo2":-89.0444,"dy":0.0017,"dx":0.0017,"nx":28,"ny":28,"refTime":"2024-03-30T03:00:00:Z","depth":0,"parameterNumber":3,"parameterNumberName":"V-component_of_WINDS"},"data":[0,0,0,0,0,0,0,0,0,0,0,0,0,0,0,0,0,0,0,0,0,0,0,0,0,0,0,0,0,0,0,0,0,0,0,0,0,0,0,0,0,0,0,0,0,0,0,0,0,0,0,0,0,0,0,0,0,0,2.9867,2.9869,0,3.0026,3.0028,3.0029,3.0049,3.0048,3.0046,3.0045,3.0214,3.0219,3.0225,0,0,0,0,0,0,0,0,0,0,0,0,0,2.9587,2.9592,2.9867,2.9869,2.9871,3.0025,3.0028,3.003,3.005,3.0048,3.0046,3.0044,3.0212,3.0219,3.0226,0,0,0,0,0,0,0,0,0,0,0,0,0,2.9723,2.9593,2.9867,2.9899,2.9904,3.0025,3.0028,3.003,3.005,3.0048,3.0045,3.0043,3.0209,3.0218,3.0227,3.0328,0,0,3.0254,3.0258,0,0,0,0,0,0,0,0,2.9715,2.9734,2.9892,2.9897,2.9902,3.0015,2.9991,3.0131,3.0051,2.9995,3.0045,3.0042,3.015,3.0163,3.0199,3.0336,3.0344,3.0255,3.026,3.0264,3.0267,0,0,0,0,0,0,0,2.9706,2.9727,2.993,2.9895,2.9901,2.9908,2.9925,3.0017,3.0084,2.9999,3.0001,3.0019,3.0152,3.019,3.0203,3.0346,3.0255,3.0262,3.0268,3.0271,3.0576,3.0579,0,0,0,0,0,0,2.969,2.9719,2.9925,2.9935,2.9801,2.9915,2.9934,2.9981,3.0083,3.0096,3.0021,3.002,3.0176,3.0192,3.0209,3.0335,3.0264,3.0272,3.0277,3.0573,3.0577,3.058,0,0,0,0,0,0,2.9684,2.9708,2.9919,2.9827,2.9855,2.9922,2.9976,2.9986,3.0024,3.0099,3.0111,3.0047,3.0175,3.0196,3.0298,3.0341,3.0276,3.0284,3.057,3.0574,3.0578,3.0588,0,0,0,0,0,0,2.9675,2.9705,2.9744,2.9828,2.9859,3.0004,2.9978,2.9991,3.0038,3.0038,3.0127,3.0139,3.0175,3.0285,3.0307,3.0352,3.0291,3.0567,3.0572,3.0577,3.0584,3.0592,3.0599,0,0,0,0,0,2.9665,2.9741,2.9745,2.977,2.9908,3.0006,3.0024,3.0061,3.0041,3.0081,3.013,3.0137,3.0332,3.0295,3.032,3.0369,3.0564,3.0571,3.0576,3.0581,3.0591,3.0599,0,0,0,0,0,0,2.9663,2.9753,2.9759,2.9864,2.9927,3.0009,3.0061,3.007,3.0142,3.0139,3.0184,3.0204,3.0304,3.0347,3.0303,3.0473,3.0447,3.0458,3.0442,3.0451,3.0458,3.0447,3.0299,0,0,0,0,0,2.9674,2.9744,2.982,2.9906,2.9937,2.9993,3.0037,3.006,3.0128,3.0156,3.0212,3.0279,3.0356,3.0406,3.0481,3.059,3.0611,3.0636,3.0643,3.0649,3.0659,3.0721,3.0733,3.06,3.06,3.06,0,0,2.9699,2.9757,2.9799,2.9907,2.9958,3.0032,3.0016,3.0094,3.015,3.0168,3.0268,3.0311,3.0389,3.0495,3.0545,3.0534,3.07,3.0657,3.066,3.0668,3.0728,3.0741,3.0752,3.0604,3.0603,3.0603,0,0,2.9782,2.9832,2.9909,2.9961,3.0038,3.0075,3.0093,3.0174,3.0203,3.0303,3.0318,3.0386,3.0517,3.0572,3.0617,3.072,3.073,3.0743,3.0782,3.0842,3.0852,3.0862,3.09,3.0913,3.0753,3.0753,3.0753,0,2.9804,2.9913,2.9948,3.0026,3.0073,3.0091,3.017,3.0219,3.0318,3.0351,3.0337,3.0501,3.0555,3.0675,3.07,3.0736,3.0759,3.0734,3.0847,3.0857,3.0867,3.0904,3.0918,3.0754,3.0754,3.0754,3.0754,0,2.9937,3.0013,3.0066,3.0158,3.0212,3.029,3.0338,3.0388,3.0406,3.0445,3.0547,3.0612,3.07,3.073,3.0749,3.0853,3.0844,3.0838,3.0813,3.088,3.0916,3.093,3.0756,3.0755,3.0755,3.0755,0,0,3.0025,3.0134,3.0153,3.0195,3.0281,3.0342,3.0421,3.0505,3.0548,3.0615,3.0684,3.0794,3.0789,3.084,3.0865,3.0918,3.0996,3.0906,3.0908,3.0921,3.1116,3.1121,3.1136,3.1002,3.1005,3.1007,3.111,0,3.0119,3.0259,3.0292,3.0412,3.0483,3.05,3.057,3.0631,3.0669,3.0737,3.0779,3.0857,3.0843,3.0874,3.0927,3.0975,3.1036,3.0968,3.1069,3.1072,3.105,3.1155,3.116,3.1254,3.1123,3.1126,3.1128,0,3.0248,3.0315,3.0442,3.0519,3.055,3.0611,3.0691,3.0754,3.0825,3.0849,3.0905,3.0925,3.101,3.0979,3.1098,3.1051,3.1094,3.1124,3.1128,3.1141,3.1105,3.1171,3.1285,3.1299,3.1149,3.1148,3.1146,0,3.0301,3.0424,3.0515,3.0551,3.0642,3.0685,3.0725,3.0793,3.0841,3.0912,3.0944,3.1024,3.1068,3.113,3.1172,3.1145,3.1288,3.126,3.1312,3.1311,3.1343,3.1341,3.1466,3.1368,3.1368,3.1367,3.1367,0,3.0403,3.0481,3.054,3.0597,3.0684,3.0722,3.0808,3.0849,3.0909,3.0976,3.0996,3.1058,3.1108,3.1178,3.1211,3.1305,3.1325,3.1348,3.1356,3.1347,3.1345,3.1378,3.1373,3.1371,3.137,3.137,3.1369,0,3.0478,3.052,3.0622,3.0699,3.072,3.0781,3.0848,3.0905,3.0942,3.1026,3.1048,3.1109,3.1192,3.1238,3.1344,3.1366,3.1471,3.1475,3.1447,3.1451,3.1501,3.1496,3.1653,3.1677,3.1561,3.1562,3.1563,0,3.0541,3.0601,3.0683,3.0728,3.0768,3.084,3.0889,3.0928,3.0979,3.1063,3.111,3.1193,3.1262,3.1394,3.1449,3.153,3.1537,3.1587,3.155,3.1539,3.154,3.1536,3.1543,3.1594,3.1595,3.1596,3.1596,0,3.065,3.0667,3.0736,3.0812,3.0869,3.0931,3.0993,3.1029,3.1079,3.1135,3.1219,3.1272,3.1378,3.1462,3.1546,3.159,3.1603,3.1607,3.1624,3.1616,3.1597,3.1609,3.1466,3.1604,3.1603,3.1603,3.1602,3.1602,3.0722,3.0776,3.0842,3.0917,3.0967,3.1025,3.1081,3.1125,3.1195,3.1283,3.1302,3.1391,3.146,3.1575,3.162,3.1692,3.1683,3.1707,3.1713,3.1719,3.1721,3.1584,3.1707,3.1707,3.1707,3.1707,3.1707,0,3.0833,3.0875,3.0944,3.1029,3.1089,3.1092,3.116,3.1211,3.1288,3.135,3.1417,3.1513,3.1594,3.1654,3.1737,3.1783,3.179,3.1803,3.1801,3.1812,3.1724,3.1701,3.1795,3.1795,3.1795,3.1795,3.1795,3.1795,3.0897,3.0988,3.1014,3.113,3.1173,3.1258,3.1298,3.1351,3.1401,3.1507,3.1573,3.161,3.1673,3.176,3.1834,3.185,3.1881,3.1893,3.191,3.1827,3.1818,3.1809,3.1788,3.1899,3.1899,3.1992,3.1993,3.1993]}]]